Showing default

FLOCK 4Q 31, 58285

Orbit data source: Space-Track

FLOCK 4Q 31, 58285 is a payload satellite owned by Planet (US) in SSO that was launched on Sat, 11 Nov 2023 UTC via an FALCON 9 launch vehicle from the Air Force Western Test Range (AFWTR). Payload-class satellites include a variety of spacecraft equipped with specific instruments for various scientific and technological missions. These include communications satellites like Starlink; space stations such as the ISS; scientific satellites like the Hubble; Earth observation satellites from companies like Planet Labs, Umbra, and HawkEye 360; GPS; miniature CubeSats for education and research; and military/defense satellites.

Loading next visibility...
Identifier
58285, 2023-174AF
Orbit
SSO
Country
Flag of USUS
Related business
Manufacturer
Planet
Mission
Operational Commercial Imaging
Bus & Motor
CUBESAT 3U, Unknown motor
Mass
5.7 kg wet, 5.7 kg dry
Launch date (UTC)
2023-11-11 (2 years ago)
Launch vehicle
FALCON 9
Launch site
Air Force Western Test Range (AFWTR)
Object type
Payload
Rocket body
Debris
Shape & HBR
Box + 2 Pan, 1.0 m
Radar Cross Section
0.072 m², Medium (>0.1 m² and < 1m²)

Expand to show TLE details & history
Last TLE update: 12 hours ago

TLE from 12 hours ago
0 FLOCK 4Q 31
1 58285U 23174AF  25298.77122276  .00028690  00000-0  69609-3 0  9993
2 58285  97.4118  20.0289 0007172 275.4342  84.6086 15.40978719109491
Epoch: 2025-10-25T18:30Z
TLE epoch observation values (Epoch: 2025-10-25T18:30:33.646Z)
Latitude
-0.00004°
Longitude
67.99172°
Altitude
445.882 km
Speed
7.645 km/s
True Right ascension
01h 20m 06s
True Declination
0° 00' 00"
Sunlit
Object was in full shadow at epoch
Visualization orbit readout
Latitude
Unknown
Longitude
Unknown
Altitude
Unknown
Speed
Unknown
Apparent Right ascension
Unknown
Apparent Declination
Unknown
Sunlit
N/A
Visualization observer readout
Local Sidereal Time
01:25:10
Azimuth
Unknown
Elevation
Unknown
Doppler factor
Unknown
Orbital elements
Apogee altitude
445.048 km
Perigee altitude
435.268 km
Semi-major axis
6,818.295 km
Eccentricity
0.00072
Inclination
97.4118°
RAAN
20.0289°
Arg. of periapsis
275.4342°
True anomaly
84.69043°
Mean anomaly
84.6086°
Eccentric anomaly
84.64951°
Mean motion
3.85505 °/min
Orbital period
93.38 mins
BSTAR
0.00069609
Loading maneuver chart data...
Computing Atmospheric mass density...

Documentation

Showing up to 5 results
|